Hourly Data Report for September 06, 2017

All times are specified in Local Standard Time (LST). Add 1 hour to adjust for Daylight Saving Time where and when it is observed.

EAST POINT (AUT)
PRINCE EDWARD ISLAND

46°27'36.000" N
61°59'18.000" W
7.70 m
8300418
71412
WEP

Download Data

Hourly Data (September 2017)
Hourly Data Report for September 6, 2017
Temp Definition
°C
Dew Point Temp Definition
°C
Rel Hum Definition
%
Wind Dir Definition
10's deg

Wind Spd Definition
km/h
Visibility Definition
km
Stn Press Definition
kPa
Hmdx Definition


Wind Chill Definition


Weather Definition


TIME
00:00 18.4 16.1 87 19 30   101.29     LegendNANA
01:00 18.1 16.1 88 19 30   101.32     LegendNANA
02:00 18.0 16.0 88 19 25   101.41     LegendNANA
03:00 17.8 15.8 88 19 23   101.41     LegendNANA
04:00 17.6 15.8 89 18 19   101.43     LegendNANA
05:00 17.9 15.7 87 19 21   101.44     LegendNANA
06:00 18.0 15.8 87 19 27   101.50     LegendNANA
07:00 19.9 17.0 83 19 28   101.54     LegendNANA
08:00 21.0 17.8 82 18 30   101.58 27   LegendNANA
09:00 21.0 17.6 81 18 28   101.62 27   LegendNANA
10:00 21.9 17.7 77 18 31   101.65 28   LegendNANA
11:00 22.0 17.9 78 18 32   101.69 28   LegendNANA
12:00 21.5 18.0 80 18 20   101.72 28   LegendNANA
13:00 23.1 18.4 75 17 18   101.72 29   LegendNANA
14:00 23.4 18.7 75 18 23   101.71 30   LegendNANA
15:00 22.7 18.2 76 17 18   101.70 29   LegendNANA
16:00 23.0 17.6 72 16 21   101.63 29   LegendNANA
17:00 21.5 17.1 76 16 22   101.61 27   LegendNANA
18:00 20.1 17.2 83 18 11   101.66 26   LegendNANA
19:00 20.4 17.9 86 18 21   101.73 26   LegendNANA
20:00 19.7 17.8 89 17 18   101.77     LegendNANA
21:00 18.9 17.4 91 17 20   101.76     LegendNANA
22:00 18.6 17.2 91 17 24   101.75     LegendNANA
23:00 18.4 17.1 92 17 25   101.75     LegendNANA

Notes on Data Quality.

Legend

  • E = Estimated
  • M = Missing
  • NA = Not Available
  • ‡ = Partner data that is not subject to review by the National Climate Archives
Date modified: